Location: Lasqueti Island Observatory
(49.4855°N, 124.2726°W)
Time: 23:50:54
(UTC-08:00)

X-37B - Visible Passes

Search period start: 30 November 2020 00:00
Search period end: 10 December 2020 00:00
Orbit: 384 x 390 km, 45.0° (Epoch: 26 November)

Date Brightness Start Highest point End Pass type
(mag) Time Alt. Az. Time Alt. Az. Time Alt. Az.
30 Nov 2.1 18:03:22 10° SW 18:06:03 25° SSE 18:06:46 23° SE visible
01 Dec 2.7 17:05:20 10° SSW 17:07:39 19° SSE 17:10:00 10° ESE visible
01 Dec 2.2 18:40:51 10° WSW 18:43:05 31° SSW 18:43:05 31° SSW visible
02 Dec 1.9 17:42:30 10° SW 17:45:21 31° S 17:47:08 18° ESE visible
02 Dec 3.7 19:18:42 10° WSW 19:19:24 15° WSW 19:19:24 15° WSW visible
03 Dec 1.6 18:20:12 10° WSW 18:23:09 36° S 18:23:28 35° SSE visible
04 Dec 1.8 17:21:45 10° WSW 17:24:42 35° S 17:27:33 11° ESE visible
04 Dec 2.9 18:58:09 10° WSW 18:59:50 22° SW 18:59:50 22° SW visible
05 Dec 1.9 17:59:35 10° WSW 18:02:31 33° S 18:03:59 21° SE visible
06 Dec 1.9 17:01:06 10° WSW 17:04:03 36° S 17:07:00 10° ESE visible
06 Dec 2.6 18:37:41 10° WSW 18:40:14 22° SSW 18:40:30 22° SSW visible
07 Dec 2.4 17:39:03 10° WSW 17:41:51 28° SSW 17:44:37 10° SE visible
07 Dec 3.9 19:16:55 10° SW 19:17:08 10° SW 19:17:08 10° SW visible
08 Dec 3.3 18:17:26 10° WSW 18:19:30 16° SSW 18:21:33 10° SSE visible
09 Dec 3.0 17:18:36 10° WSW 17:21:08 22° SSW 17:23:41 10° SE visible
